Regional Weather Roundup
Issued by NWS

Home | Current Version | Previous Version | Text Only | Print | Product List | Glossary On
Versions: 1 2 3 4 5 6 7 8 9 10 11 12 13 14 15 16 17 18 19 20 21 22 23 24 25 26 27 28 29 30 31 32 33 34 35 36 37 38 39 40 41 42 43 44 45 46 47 48 49 50
000
ASUS43 KDMX 241406
RWRIA

WEATHER ROUNDUP FOR IOWA
NATIONAL WEATHER SERVICE DES MOINES IA
900 AM CDT WED MAY 24 2017

NOTE: "FAIR" INDICATES FEW OR NO CLOUDS BELOW 12,000 FEET WITH NO
SIGNIFICANT WEATHER AND/OR OBSTRUCTIONS TO VISIBILITY.

* - THESE STATIONS ARE NOT NWS STATIONS...THUS NOT UNDER NWS
QUALITY CONTROL.  THEY ALSO DO NOT REPORT WEATHER SUCH
AS PRECIPITATION OR FOG.

IAZ001>003-012>014-020>022-031>034-043>046-241500-
   NORTHWEST IOWA

CITY           SKY/WX    TMP DP  RH WIND       PRES   REMARKS
CARROLL *      CLOUDY    52  50  93 N14       29.74S
CHEROKEE *     PTSUNNY   51  49  92 N9        29.78S
DENISON *      CLOUDY    52  46  82 N8G14     29.78R
LE MARS *      CLOUDY    48  46  93 N8        29.81S
ORANGE CITY *  CLOUDY    46  46 100 N9        29.80R
SHELDON *      CLOUDY    48  46  93 NE15        N/A
SIOUX CITY     PTSUNNY   52  49  89 N10       29.80S
SPENCER        CLOUDY    50  45  83 N12       29.78S
STORM LAKE *     N/A     50  46  87 N14       29.77R
$$

IAZ055>058-069>071-079>083-090>094-241500-
   SOUTHWEST IOWA

CITY           SKY/WX    TMP DP  RH WIND       PRES   REMARKS
ATLANTIC *     PTSUNNY   54  48  82 N15       29.73F
AUDUBON *      PTSUNNY   54  48  82 N10       29.74F
CLARINDA *     CLOUDY    54  48  82 N17       29.75S
COUNCIL BLFS * MOSUNNY   52  50  93 NW12      29.76F
CRESTON *      CLOUDY    52  50  93 N14G22    29.71S
HARLAN  *      MOSUNNY   52  50  93 N12       29.78F
LAMONI         CLOUDY    52  50  93 N9G18     29.67S
RED OAK *      CLOUDY    55  48  76 N14G21    29.74F
SHENANDOAH *   MOSUNNY   54  48  82 N10G18    29.75S
$$

IAZ047>049-059>061-072>074-084-241500-
   CENTRAL IOWA

CITY           SKY/WX    TMP DP  RH WIND       PRES   REMARKS
AMES           CLOUDY    52  50  93 N10       29.70S
ANKENY *       CLOUDY    54  50  87 N9G16     29.70S
BOONE *        CLOUDY    52  52 100 N10       29.70S
CHARITON *     CLOUDY    54  50  87 N8        29.66S
DES MOINES     CLOUDY    55  50  83 N10       29.68S
GRINNELL*      DRIZZLE   52  50  92 N13       29.68S
KNOXVILLE *    CLOUDY    54  50  87 N12       29.66R
MARSHALLTOWN   CLOUDY    52  50  93 N16       29.68R
NEWTON *       PTSUNNY   52  50  93 N14       29.67R FOG
PELLA *        CLOUDY    55  51  85 N6        29.68S
PERRY *        CLOUDY    53  50  90 N15       29.72S
$$

IAZ004>006-015-016-023>025-035-036-241500-
   NORTH CENTRAL IOWA

CITY           SKY/WX    TMP DP  RH WIND       PRES   REMARKS
ALGONA *       PTSUNNY   50  48  93 N12       29.76R
CLARION *      CLOUDY    52  52 100 N15       29.72F
ESTHERVILLE    CLOUDY    48  46  93 N12       29.77S
FORT DODGE *   CLOUDY    52  48  87 N6        29.75R
MASON CITY     CLOUDY    50  47  89 N13       29.74S
FOREST CITY *  CLOUDY    54  46  76 N9        29.74S
WEBSTER CITY * CLOUDY    52  48  87 N16       29.70S
IOWA FALLS *   CLOUDY    52  49  89 N8        29.72R
$$

IAZ007>011-017>019-026>030-037>042-050>054-066-241500-
   NORTHEAST IOWA

CITY           SKY/WX    TMP DP  RH WIND       PRES   REMARKS
CEDAR RAPIDS   CLOUDY    53  52  96 NE14      29.64S
CHARLES CITY * CLOUDY    52  50  93 NE14      29.71S
CLINTON *      PTSUNNY   55  52  89 N12       29.63S
DECORAH *      CLOUDY    52  48  87 NE8G14    29.69S
DUBUQUE        CLOUDY    51  49  92 N9        29.65S
MONTICELLO *   CLOUDY    54  50  87 N9G16     29.65S
OELWEIN *      CLOUDY    52  50  93 NE13G18   29.68S
WATERLOO       CLOUDY    53  48  83 NE13      29.68S
$$

IAZ064-065-067-068-078-241500-
   EAST CENTRAL IOWA

CITY           SKY/WX    TMP DP  RH WIND       PRES   REMARKS
DAVENPORT      CLOUDY    55  52  89 NE10      29.64R
IOWA CITY      CLOUDY    56  52  86 NE7       29.65S
MT. PLEASANT * CLOUDY    53  53  99 N10       29.64S
MUSCATINE *    CLOUDY    54  52  94 NE10      29.64R
QUAD CITIES    CLOUDY    56  51  84 VRB3      29.61F HAZE
$$

IAZ062-063-075>077-085>089-095>099-241500-
   SOUTHEAST IOWA

CITY           SKY/WX    TMP DP  RH WIND       PRES   REMARKS
BURLINGTON     CLOUDY    53  52  96 N8        29.62S FOG
FAIRFIELD *    CLOUDY    52  50  93 N7        29.64S FOG
FORT MADISON * CLOUDY    54  52  94 NW7       29.63F
KEOKUK *       MOSUNNY   55  52  88 N12       29.62S
OSKALOOSA *    CLOUDY    53  51  92 N8        29.65S
CENTERVILLE *  PTSUNNY   54  52  94 N8        29.67S
OTTUMWA        CLOUDY    54  52  93 N7        29.65S
WASHINGTON *   CLOUDY    55  52  88 N9        29.65S
$$

ABBREVIATIONS USED IN REMARKS
   TC - TEMPERATURES IN CELSIUS
  WCI - WIND CHILL INDEX
   HX - HEAT INDEX
  VSB - VISIBILITY
$$





USA.gov is the U.S. government's official web portal to all federal, state and local government web resources and services.